www.pogodaiklimat.ru

Погода и климат >> Архив погоды >> Россия >> Камчатский край >> Тигиль


ПОГОДА в Тигиле

  • Прогноз погоды в Тигиле
  • Монитор погоды в Тигиле

АРХИВ ПОГОДЫ в Тигиле

Время (UTC), дата Ветер
(напр.,м/с)
 
Видим.   Явления Облачность Т
(С)
Тd
(С)
f
(%)
Тe
(С)
Тes
(С)
Комфортность P
(гПа)
Po
(гПа)
Тmin
(С)
Tmax
(С)
R
(мм)
R24
(мм)
S
(см)
12 15.01 штиль 0 ясно 70 997.3
15 15.01 В 1 ясно 68 1018.7
18 15.01 штиль 0 ясно 66 1018.7
21 15.01 штиль 0
{2}
ясно 64 1020.0
00 16.01 штиль 0 2000 м дымка 10 баллов -31.4 -35.5 67 -31 -31 опасность
обморожения
1022.3 1020.0 -34.6
03 16.01 штиль 0 ясно 71 1018.7
06 16.01 штиль 0 20 км 2 балла -31.2 -35.3 67 -31 -31 опасность
обморожения
1021.0 1018.7
09 16.01 штиль 0
{2}
20 км ясно -34.6 -39.1 63 -35 -35 опасность
обморожения
1019.6 1017.3 -26.9
12 16.01 В 1 20 км ясно -36.9 -41.8 60 -42 -42 опасность
обморожения
1018.4 1016.0
15 16.01 ЮВ 1 20 км ясно -38.3 -43.3 59 -43 -43 опасность
обморожения
1015.7 1013.3
18 16.01 штиль 0 ясно 62 1010.7
21 16.01 ЮВ 1
{2}
20 км 10 баллов -35.1 -39.6 63 -40 -40 опасность
обморожения
1010.3 1008.0 -38.3
00 17.01 СВ 1 20 км 10 баллов -30.5 -34.5 68 -35 -35 опасность
обморожения
1007.6 1005.3
03 17.01 ЮВ 1 20 км 10 баллов -23.4 -26.6 75 -27 -27 1003.5 1001.3
06 17.01 С 2 20 км 10 баллов -18.3 -23.1 66 -24 -24 1002.1 1000.0
09 17.01 СЗ 1
{4}
10 км слаб. снег 10 баллов -17.3 -21.6 69 -20 -20 999.4 997.3 -17.3 0.2
12 17.01 СЗ 2 10 км слаб. снег 10 баллов -15.5 -19.2 73 -21 -21 999.4 997.3
15 17.01 СЗ 2 20 км 10 баллов -13.1 -16.7 74 -18 -18 998.1 996.0
18 17.01 З 1 10 км слаб. снег 10 баллов -12.9 -15.0 84 -15 -15 998.1 996.0
21 17.01 штиль 0
{5}
10 км слаб. снег 10 баллов -12.7 -14.8 84 -13 -13 999.4 997.3 -17.3 4
00 18.01 ЮЗ 1 10 км слаб. снег 10 баллов -12.1 -14.7 81 -14 -14 999.4 997.3
03 18.01 Ю 1 9 баллов 73 996.0
06 18.01 штиль 0 20 км ясно -18.9 -21.3 81 -19 -19 999.4 997.3
09 18.01 З 1
{3}
ясно 76 997.3 0.6
12 18.01 штиль 0 9 баллов 71 997.3
15 18.01 штиль 0 20 км 10 баллов -27.1 -30.6 72 -27 -27 1000.9 998.7
18 18.01 штиль 0 20 км 10 баллов -24.2 -27.3 75 -24 -24 1000.9 998.7
21 18.01 СВ 1
{3}
20 км 10 баллов -21.5 -24.4 77 -25 -25 999.5 997.3 -29.3
00 19.01 ЮЗ 1 20 км 10 баллов -22.0 -24.9 77 -25 -25 999.5 997.3
03 19.01 СЗ 1 20 км 9 баллов -13.3 -15.4 84 -16 -16 998.1 996.0
06 19.01 Ю 1 20 км 7 баллов -17.6 -19.9 82 -20 -20 998.1 996.0
09 19.01 штиль 0
{5}
20 км 7 баллов -17.1 -19.4 82 -17 -17 999.4 997.3 -13.1
12 19.01 штиль 0 20 км 2 балла -17.7 -20.2 81 -18 -18 998.1 996.0
15 19.01 штиль 0 9 баллов 79 994.7
18 19.01 С 1 10 баллов 80 994.7
21 19.01 В 1
{3}
10 баллов 78 993.3
00 20.01 СЗ 1 10 баллов 80 994.7
03 20.01 ЮЗ 1 5 баллов 77 974.7
06 20.01 СВ 1 20 км 9 баллов -12.2 -14.6 82 -14 -14 995.4 993.3
09 20.01 З 1
{7}
20 км 7 баллов -3.2 -7.9 70 -5 -5 995.3 993.3 -2.0
12 20.01 СВ 6
{10}
20 км 10 баллов +0.8 -5.6 62 -5 -5 995.3 993.3
15 20.01 В 6
{12}
20 км позёмок ясно +0.2 -6.6 60 -6 -6 996.7 994.7
18 20.01 В 4
{12}
20 км 2 балла -0.8 -7.4 61 -6 -6 998.0 996.0
21 20.01 В 6
{13}
20 км позёмок ясно +0.1 -7.0 59 -6 -6 999.3 997.3 -4.4
00 21.01 В 6
{14}
20 км позёмок 4 балла +1.0 -6.8 56 -5 -5 1002.0 1000.0
03 21.01 В 2
{14}
20 км 10 баллов +1.8 -8.9 45 -1 -1 1003.3 1001.3
06 21.01 СВ 3 20 км 10 баллов +1.5 -7.3 52 -2 -2 1003.3 1001.3
09 21.01 СВ 3
{14}
20 км 10 баллов +0.9 -6.0 60 -3 -3 1004.7 1002.7 +2.3
12 21.01 СВ 4
{15}
20 км 10 баллов +1.1 -5.8 60 -4 -4 1006.0 1004.0
15 21.01 СВ 3 20 км 10 баллов -0.3 -5.5 68 -5 -5 1006.0 1004.0
18 21.01 В 4
{11}
20 км 10 баллов +0.2 -6.4 61 -5 -5 1006.0 1004.0
21 21.01 В 5
{15}
20 км 10 баллов +0.8 -7.4 54 -4 -4 1007.3 1005.3 -0.5
00 22.01 ЮВ 6
{12}
20 км 10 баллов +1.2 -8.3 49 -4 -4 1008.7 1006.7
03 22.01 С 2
{11}
20 км 6 баллов +0.9 -8.9 48 -2 -2 1008.7 1006.7
06 22.01 СЗ 1 20 км 2 балла -3.8 -9.6 64 -6 -6 1010.0 1008.0

 

Местоположение метеостанции Тигиль (Камчатский край, Россия): широта 57.75 долгота 158.60 высота над уровнем моря 16 м.

В архиве по умолчанию представлена погода в Тигиле за последнюю неделю. Архивные данные за месяц целиком и за предыдущие месяцы, начиная с января 2011 года, Вы можете получить, выбрав интересующий диапазон дат из раскрывающегося списка и нажав кнопку "Ввод!".


*Определитесь, кто Вы:
робот инопланетянин человек

Внимание! Время в таблицах - всемирное. Для получения местного времени необходимо прибавить поправку, которая равна 12 ч.

Смотрите также архив погоды в соседних городах и на ближайших метеорологических станциях:

Погода в Усть-Воямполке (Камчатский край, Россия) (88 км)
Погода в Усть-Хайрюзово (Камчатский край, Россия) (136 км)
Погода в Палане (Камчатский край, Россия) (166 км)
Погода в Эссо (Камчатский край, Россия) (203 км)
Погода в Козыревске (Камчатский край, Россия) (203 км)
Погода в Ключах (Камчатский край, Россия) (207 км)
Погода на Мысе Озерном (Камчатский край, Россия) (274 км)
Погода в Долиновке (Камчатский край, Россия) (294 км)
Погода в Усть-Камчатске (Камчатский край, Россия) (301 км)
Погода в Оссоре (Камчатский край, Россия) (304 км)

Пояснения к столбцам:

Ветер - указаны скорость ветра в м/с - средняя за 10 мин, порывы в срок и между сроками (в фигурных скобках) и направление, откуда дует ветер: С - северный, СВ - северо-восточный, В - восточный, ЮВ - юго-восточный, Ю - южный, ЮЗ - юго-западный, З - западный, СЗ - северо-западный.
Видимость - горизонтальная дальность видимости в метрах или километрах. При видимости от 1 до 10 км при отсутствии осадков обычно наблюдается дымка, при ухудшении видимости до 1 км и менее - туман. В сухую погоду видимость может ухудшаться дымом, пылью или мглою.
Явления - указаны атмосферные явления, наблюдавшиеся в срок или в последний час перед сроком; фигурными скобками обозначены явления, наблюдавшиеся между сроками (за 1-3 часа до срока); квадратными скобками обозначены град или гололедные отложения с указанием их диаметра в мм.
Облачность - указаны через наклонную черту общая и нижняя облачность в баллах и высота нижней границы облаков в метрах; квадратными скобками обозначены формы облаков: Ci - перистые, Cs - перисто-слоистые, Cc - перисто-кучевые, Ac - высококучевые, As - высокослоистые, Sc - слоисто-кучевые, Ns - слоисто-дождевые, Cu - кучевые, Cb - кучево-дождевые. Подробнее классификацию облаков см. в Атласе облаков (PDF).
T - Температура воздуха - температура, измеренная на высоте 2 м над землей.
Td - Температура точки росы - температура, при понижении до которой содержащийся в воздухе водяной пар достигнет насыщения.
f - Относительная влажность воздуха - влажноcть воздуха, измеренная на высоте 2 м над землей.
Te - Эффективная температура - температура, которую ощущает одетый по сезону человек в тени. Характеристика душности погоды. При расчете учитывается влияние влажности воздуха и скорости ветра на теплоощущения человека.
Tes - Эффективная температура на солнце - температура, которую ощущает человек, с поправкой на солнечный нагрев. Характеристика знойности погоды. Зависит от высоты солнца над горизонтом, облачности и скорости ветра. Ночью, в пасмурную погоду, а также при ветре 12 м/с и более поправка равна нулю.
P - Атмосферное давление - приведенное к уровню моря атмосферное давление.
Po - Атмосферное давление - измеренное на уровне метеостанции атмосферное давление.
Tmin - Минимальная температура - минимум температуры воздуха на высоте 2 м над землей.
Tmax - Максимальная температура - максимум температуры воздуха на высоте 2 м над землей.
R - Количество осадков - Количество выпавших осадков за период времени, мм. При наведении курсора мыши на число - период времени, за который выпало указанное количество осадков.
R24 - Количество осадков - Количество выпавших осадков за 24 часа, мм.
S - Снежный покров - Высота снежного покрова, см. При наведении курсора мыши на число - состояние снежного покрова и степень покрытия местности в баллах.